Location: Mohawk View
(42.7837°N, 73.7885°W)
Time: 07:31:07
(UTC+00:00)

SL-16 R/B - Pass Details

Date: 17 June 2021
Orbit: 842 x 847 km, 71.0° (Epoch: 28 July)

Event Time Altitude Azimuth Distance (km) Brightness Sun altitude
Exits shadow 04:25:47 31° 110° (ESE) 1,450 3.2 -23.5°
Maximum altitude 04:26:06 31° 104° (ESE) 1,444 3.2 -23.5°
Drops below altitude 10° 04:31:00 10° 44° (NE) 2,471 5.1 -23.6°
Sets 04:33:42 0° 34° (NE) 3,410 6.1 -23.6°
